Location: Waco, TX
(31.5480°N, 97.1670°W)
Time: 13:47:25
(UTC-05:00)

ISS - Pass Details

Date: 08 May 2021
Orbit: 417 x 422 km, 51.6° (Epoch: 15 May)

Event Time Altitude Azimuth Distance (km) Brightness Sun altitude
Rises 23:26:33 0° 210° (SSW) 2,342 - -33.4°
Reaches altitude 10° 23:28:42 10° 202° (SSW) 1,484 - -33.6°
Maximum altitude 23:31:52 41° 131° (SE) 616 - -34.0°
Drops below altitude 10° 23:35:03 10° 59° (ENE) 1,494 - -34.4°
Sets 23:37:12 0° 52° (NE) 2,361 - -34.6°
